Weather observations for the past three days for
Morgantown Municipal-Hart Field
Metric (Imperial)
Date Time (edt) Wind (kph) Vis. (km) Weather Sky Cond. Temperature (ºC) Relative Humidity Wind Chill (°C) Heat Index (°C) Pressure Precipitation (cm)
Air Dwpt 6 hour altimeter (cm) sea level (mb) 1 hr 3 hr 6 hr
Max. Min.
26 16:53 SE 15 16.09 Partly Cloudy SCT060 28.3 16.7 49% 29 75.74 1008.8
26 15:53 SE 13 16.09 Partly Cloudy SCT060 28.9 17.2 49% 29 75.77 1009.1
26 14:53 SW 15 16.09 Partly Cloudy SCT050 28.9 16.1 46% 29 75.84 1010.0
26 13:53 SW 11 16.09 Partly Cloudy SCT045 28.3 18.3 28.3 17.8 55% 29 75.92 1011.1
26 12:53 Calm 16.09 Partly Cloudy SCT043 27.2 17.8 57% 28 75.97 1012.0
26 11:53 Calm 16.09 Fair CLR 25.6 17.8 62% 27 76.07 1013.1
26 10:53 NE 6 16.09 Fair CLR 23.9 18.3 71% 25 76.05 1012.9
26 09:53 Calm 16.09 Fair CLR 22.8 16.7 69% 76.05 1013.2
26 08:53 N 6 16.09 Fair CLR 20 17.2 84% 76.07 1013.4
26 07:53 NE 6 16.09 Fair CLR 17.8 16.7 18.3 15.6 93% 76.05 1013.2
26 06:53 Calm 1.21 Fair CLR 16.7 16.1 96% 76.05 1013.1
26 05:53 Calm 16.09 A Few Clouds FEW002 16.1 15 93% 76.02 1012.7
26 04:53 Calm 16.09 Fair CLR 16.7 15.6 93% 76.02 1012.6
26 03:53 Calm 16.09 Fair CLR 17.2 15.6 90% 76.02 1012.6
26 02:53 S 9 16.09 Overcast OVC100 17.2 16.1 93% 76.02 1012.4
26 01:53 S 13 16.09 Mostly Cloudy FEW060 FEW070 BKN110 17.2 16.1 18.9 17.2 93% 76.02 1012.6 0.03 1.14
26 00:53 Calm 16.09 Mostly Cloudy SCT070 BKN110 17.8 16.7 93% 76.02 1012.6
25 23:53 S 9 16.09 Thunderstorm in Vicinity Light Rain FEW070 BKN095 BKN110 18.3 16.7 90% 76.02 1012.5 0.18
25 22:53 SW 9 6.44 Light Rain FEW080 OVC100 18.9 17.2 90% 75.97 1011.9 0.48 0.94
25 21:53 Calm 12.87 Light Rain SCT060 SCT080 OVC100 18.3 17.2 93% 75.95 1011.6 0.2
25 20:53 E 6 16.09 Overcast SCT060 BKN090 OVC110 18.9 17.2 90% 75.9 1011.1 0.25
25 19:53 N 9 G 33 1.61 Rain Fog/Mist BKN013 BKN037 OVC055 18.3 16.7 28.3 18.3 90% 75.9 1011.2 1.27 1.3
25 18:53 N 13 16.09 Mostly Cloudy SCT039 BKN055 BKN070 22.2 16.7 71% 75.82 1009.9
25 17:53 W 19 16.09 Mostly Cloudy SCT046 BKN110 27.8 16.7 51% 28 75.77 1009.3
25 16:53 SW 11 16.09 Mostly Cloudy SCT033 BKN110 27.8 17.2 53% 28 75.79 1009.6 0.03
25 15:53 S 7 16.09 Mostly Cloudy SCT037 BKN060 BKN090 25.6 19.4 69% 27 75.79 1009.5 0.03
25 14:53 SW 15 16.09 Mostly Cloudy FEW100 BKN110 27.2 17.8 57% 28 75.82 1009.8
25 13:53 S 15 16.09 Partly Cloudy SCT042 27.8 17.2 27.8 19.4 53% 28 75.84 1010.1
25 12:53 SW 17 G 26 16.09 A Few Clouds FEW038 27.2 17.2 54% 28 75.87 1010.6
25 11:53 W 9 16.09 A Few Clouds FEW037 27.2 16.7 53% 28 75.92 1011.2
25 10:53 Vrbl 9 16.09 Fair CLR 25 17.8 64% 26 75.92 1011.1
25 09:53 S 9 16.09 Fair CLR 23.9 18.3 71% 25 75.97 1011.8
25 08:53 SW 6 16.09 Fair CLR 22.8 17.8 74% 76 1012.1
25 07:53 Calm 16.09 Fair CLR 19.4 17.2 19.4 16.7 87% 76 1012.3
25 06:53 Calm 12.87 Fair CLR 17.8 16.7 93% 76 1012.2
25 05:53 Calm 14.48 A Few Clouds FEW001 17.2 16.1 93% 75.92 1011.3
25 04:53 S 6 14.48 Fair CLR 17.2 16.1 93% 75.9 1010.9
25 03:53 Calm 14.48 Fair CLR 17.8 16.7 93% 75.9 1010.8
25 02:53 Calm 16.09 Fair CLR 18.9 16.7 87% 75.95 1011.3
25 01:53 Calm 16.09 Fair CLR 18.9 16.7 25 18.3 87% 75.95 1011.7
25 00:53 Calm 16.09 Mostly Cloudy FEW060 SCT085 BKN110 19.4 16.7 84% 76 1012.2
24 23:53 S 11 16.09 Thunderstorm in Vicinity BKN065 OVC080 20 16.1 78% 76.02 1012.5
24 22:53 SW 9 16.09 Overcast FEW022 BKN050 OVC060 21.7 16.7 73% 76.02 1012.7
24 21:53 Calm 16.09 A Few Clouds FEW060 21.7 18.3 81% 75.97 1012.0
24 20:53 S 6 16.09 Mostly Cloudy SCT043 BKN100 22.8 18.3 76% 75.95 1011.7
24 19:53 SW 6 16.09 Partly Cloudy SCT075 25 17.8 28.3 24.4 64% 26 75.92 1011.1
24 18:53 SW 11 16.09 Partly Cloudy SCT065 25.6 17.8 62% 27 75.92 1011.1
24 17:53 SW 17 16.09 Mostly Cloudy SCT033 BKN049 BKN100 27.2 17.2 54% 28 75.9 1010.9
24 16:53 SW 9 16.09 Mostly Cloudy SCT049 BKN060 27.8 16.7 51% 28 75.92 1011.3
24 15:53 W 7 16.09 Mostly Cloudy FEW042 SCT060 BKN100 27.2 16.1 51% 28 75.95 1011.6
24 14:53 Vrbl 7 16.09 Mostly Cloudy BKN040 BKN047 27.8 16.1 49% 28 75.97 1011.9
24 13:53 SW 7 16.09 Mostly Cloudy FEW038 BKN065 BKN080 26.1 16.7 27.2 19.4 56% 27 76 1012.2
24 12:53 SE 9 16.09 Mostly Cloudy SCT035 SCT075 BKN090 25.6 16.7 58% 26 76.02 1012.5
24 11:53 Calm 16.09 Overcast SCT028 BKN035 OVC048 23.9 16.7 64% 25 76.07 1013.4
24 10:53 Vrbl 6 16.09 Mostly Cloudy SCT019 BKN034 BKN043 23.9 17.8 69% 25 76.07 1013.5
24 09:53 SE 6 16.09 Partly Cloudy SCT018 22.2 18.3 79% 76.1 1013.6
24 08:53 SW 6 16.09 Mostly Cloudy BKN009 BKN016 BKN023 20.6 17.8 84% 76.1 1013.6
24 07:53 Calm 16.09 Mostly Cloudy BKN050 19.4 17.8 19.4 17.8 91% 76.1 1013.5 0.03
24 06:53 Calm 11.27 Overcast BKN050 OVC110 18.3 17.8 97% 76.07 1013.3
24 05:53 Calm 12.87 Thunderstorm Light Rain OVC018 18.3 17.2 93% 76.05 1013.0 0.03
24 04:53 Calm 14.48 Mostly Cloudy BKN030 BKN041 17.8 16.7 93% 76.05 1012.9
24 03:53 Calm 16.09 Mostly Cloudy FEW030 BKN042 18.3 16.7 90% 76.02 1012.8
24 02:53 Calm 16.09 Fair CLR 17.8 16.7 93% 76.02 1012.8
24 01:53 S 6 6.44 Fog/Mist CLR 17.8 16.7 23.9 17.8 93% 76.07 1013.2
24 00:53 S 6 8.05 Fog/Mist SCT029 BKN043 18.3 17.2 93% 76.1 1013.8
23 23:53 Calm 8.05 Fog/Mist SCT033 19.4 17.8 91% 76.12 1014.0
23 22:53 Calm 16.09 Fair CLR 19.4 17.8 91% 76.12 1014.0
23 21:53 S 6 16.09 Fair CLR 19.4 17.8 91% 76.1 1013.8
23 20:53 S 6 16.09 Partly Cloudy SCT050 21.1 17.8 82% 76.05 1013.3
23 19:53 Calm 16.09 Fair CLR 23.3 17.2 25.6 23.3 69% 76.05 1013.0
23 18:53 S 7 16.09 A Few Clouds FEW033 24.4 16.7 62% 25 76.05 1012.9
23 17:53 SW 9 16.09 Mostly Cloudy SCT033 BKN110 25 16.7 60% 26 76.05 1013.2
Date Time (edt) Wind (kph) Vis. (km) Weather Sky Cond. Air Dwpt Max. Min. Relative Humidity Wind Chill (°C) Heat Index (°C) altimeter (cm) sea level (mb) 1 hr 3 hr 6 hr
6 hour
Temperature (ºC) Pressure Precipitation (cm)